Location: Capriglia
(40.9667°N, 14.7667°E)
Time: 23:53:58
(UTC+00:00)

Daily predictions for brighter satellites

Satellite Brightness Start Highest point End
(mag) Time Altitude Azimuth Time Altitude Azimuth Time Altitude Azimuth
Cosmos 44 Rocket 4.1 18:43:52 10° NNW 18:48:27 39° NE 18:53:06 10° ESE
SL-08 RB Rocket 3.8 18:43:50 10° SSE 18:48:27 77° ENE 18:53:02 10° N
SL-8 R/B 3.9 18:43:41 10° WSW 18:48:29 80° NNW 18:53:19 10° ENE
STARLINK-1139 4.0 18:44:53 10° WNW 18:48:58 62° SW 18:53:03 10° SE
Meteor 1-11 Rocket 3.9 18:46:44 10° NNW 18:52:24 77° W 18:57:56 10° S
STARLINK-1174 4.1 18:49:52 10° WNW 18:53:55 56° SW 18:57:58 10° SE
STARLINK-1231 4.4 18:51:12 10° SSW 18:54:48 29° SE 18:58:24 10° ENE
Cosmos 1844 Rocket 2.7 18:51:33 10° SSW 18:57:13 77° ESE 19:02:53 10° NNE
Lacrosse 5 4.3 18:55:08 10° NNW 18:57:50 14° NNE 19:00:30 10° NE
Cosmos 1536 2.9 18:53:51 10° N 18:57:56 89° E 19:02:00 10° S
STARLINK-1149 4.2 18:54:51 10° WNW 18:58:52 51° SW 19:02:53 10° SSE
STARLINK-1232 4.3 18:56:03 10° SSW 18:59:44 32° SE 19:03:26 10° ENE
ASTEX 1 3.4 18:55:10 10° SSE 18:59:58 64° E 19:04:50 10° N
Cosmos 1666 2.8 18:56:19 10° N 19:00:12 83° W 19:04:02 10° S
STARLINK-1169 4.5 18:57:13 10° NW 19:01:10 42° NNE 19:05:07 10° ESE
STARLINK-1180 4.4 18:59:53 10° WNW 19:03:51 45° SW 19:07:49 10° SSE
STARLINK-1208 4.2 19:00:54 10° SSW 19:04:40 35° SE 19:08:28 10° ENE
STARLINK-1178 4.4 19:02:10 10° NW 19:06:09 45° NNE 19:10:09 10° ESE
STARLINK-1228 3.6 19:05:01 10° WSW 19:08:20 63° NW 19:11:39 10° NE
NOSS 2-3 (D) 4.2 19:05:29 10° S 19:09:12 32° ESE 19:13:18 10° NE
STARLINK-1271 4.0 19:05:48 10° SSW 19:09:38 39° SE 19:13:31 10° ENE
FREGAT/IRIS 4.5 19:08:30 10° SSW 19:10:48 26° W 19:13:07 10° NW
Cosmos 2084 Rocket 3.4 19:06:40 10° SSW 19:10:54 87° ESE 19:15:15 10° NE
SJ-6B 3.5 19:07:15 10° S 19:10:56 52° W 19:14:36 10° NNW
STARLINK-1120 4.2 19:07:08 10° NW 19:11:10 48° NNE 19:15:03 11° ESE
STARLINK-1234 3.5 19:09:40 10° WSW 19:12:44 59° NW 19:15:49 10° NE
Cosmos 1862 Rocket 4.2 19:08:36 10° SSW 19:12:59 60° W 19:17:22 10° N
Cosmos 2034 Rocket 4.0 19:06:55 10° N 19:13:04 65° E 19:19:10 10° SSE
Cosmos 407 Rocket 4.5 19:08:22 10° N 19:13:14 34° ENE 19:17:37 12° SE
Cosmos 1733 Rocket 3.7 19:09:06 10° NNW 19:13:23 57° W 19:17:38 10° S
STARLINK-1212 2.9 19:10:58 10° SW 19:14:04 82° NW 19:17:11 10° NE
STARLINK-1209 3.8 19:11:16 10° WSW 19:14:20 53° NW 19:17:26 10° NE
STARLINK-1105 2.9 19:11:27 10° SW 19:14:33 81° NW 19:17:39 10° NE
STARLINK-1154 3.9 19:10:41 10° SSW 19:14:36 43° SE 19:18:32 10° ENE
STARLINK-1247 3.0 19:12:21 10° SW 19:15:27 79° NW 19:18:34 10° NE
STARLINK-1227 3.0 19:12:49 10° SW 19:15:55 78° NW 19:19:01 10° NE
STARLINK-1131 4.1 19:12:05 10° NW 19:16:09 52° NNE 19:19:49 12° ESE
STARLINK-1226 3.0 19:13:40 10° SW 19:16:46 76° NW 19:19:53 10° NE
SPOT 3 Rocket 3.6 19:12:16 10° SSE 19:17:25 89° ENE 19:22:36 10° NNW
STARLINK-1215 3.1 19:14:37 10° SW 19:17:43 75° NW 19:20:49 10° NE
USA 229 DEB 3.6 19:12:57 10° SSW 19:19:25 86° SE 19:26:15 10° NE
COSMOS 2406 4.5 19:14:31 10° N 19:19:27 28° NE 19:23:55 12° ESE
STARLINK-1217 3.1 19:16:23 10° WSW 19:19:29 72° NW 19:22:35 10° NE
USA 229 3.6 19:13:05 10° SSW 19:19:32 85° ESE 19:26:22 10° NE
STARLINK-1197 3.8 19:15:35 10° SSW 19:19:33 48° SE 19:23:33 10° ENE
MOS 1 Rocket 3.6 19:15:08 10° N 19:19:36 64° WNW 19:23:51 10° SSW
Okean 1-7 3.3 19:16:06 10° SSE 19:20:12 46° E 19:24:17 10° NNE
STARLINK-1229 3.2 19:17:18 10° WSW 19:20:24 70° NW 19:23:31 10° NE
Cosmos 1844 3.8 19:14:51 10° SSW 19:20:29 87° WNW 19:26:15 10° NNE
STARLINK-1190 4.0 19:17:00 10° NW 19:21:06 57° NE 19:24:34 14° ESE
STARLINK-1270 3.2 19:18:10 10° WSW 19:21:15 69° NW 19:24:22 10° NE
BREEZE M DEB (TANK) 3.3 19:19:39 10° WNW 19:22:31 29° SW 19:24:06 14° SSE
STARLINK-1189 3.3 19:20:01 10° WSW 19:23:06 66° NW 19:26:12 10° NE
STARLINK-1188 3.3 19:20:53 10° WSW 19:23:59 64° NW 19:27:05 10° NE
Cosmos 1607 4.1 19:17:43 10° NW 19:24:07 79° WSW 19:30:14 12° SSE
STARLINK-1198 3.7 19:20:28 10° SSW 19:24:29 53° SE 19:28:32 10° ENE
STARLINK-1235 4.0 19:21:41 10° WSW 19:24:41 47° NW 19:27:42 10° NE
STARLINK-1187 3.7 19:22:04 10° WSW 19:25:06 54° NW 19:28:08 10° NE
Resurs 01 Rocket 1.7 19:21:43 11° SSE 19:26:02 68° ENE 19:30:28 10° N
STARLINK-1129 3.9 19:22:01 10° NW 19:26:08 62° NE 19:29:24 16° ESE
STARLINK-1191 3.4 19:23:23 10° WSW 19:26:27 60° NW 19:29:31 10° NE
Cosmos 1816 Rocket 4.4 19:20:55 10° S 19:27:01 71° E 19:33:07 10° NNE
STARLINK-1221 3.5 19:24:17 10° WSW 19:27:20 59° NW 19:30:24 10° NE
NOSS 3-1 (C) 3.5 19:22:16 10° SW 19:27:38 77° NW 19:33:52 10° NNE
STARLINK-1222 3.5 19:25:10 10° WSW 19:28:13 58° NW 19:31:16 10° NE
NOSS 3-1 (A) 3.2 19:23:22 10° SSW 19:28:40 67° ESE 19:34:44 10° NE
STARLINK-1214 3.6 19:26:05 10° WSW 19:29:09 57° NW 19:32:12 10° NE
Hubble Space Telescope 2.6 19:27:07 10° SSW 19:29:17 14° S 19:30:11 13° SSE
STARLINK-1199 3.6 19:25:26 10° SW 19:29:29 58° SE 19:33:34 10° ENE
OPS 8737 4.4 19:25:37 10° SSW 19:29:43 65° ESE 19:32:52 10° NE
H-2A R/B 4.1 19:25:54 10° SSW 19:29:57 25° W 19:34:07 10° NW
USA 186 4.4 19:30:01 10° WSW 19:30:30 10° W 19:30:59 10° W
STARLINK-1134 3.8 19:27:00 10° NW 19:31:09 68° NE 19:34:12 17° ESE
Abrixas rocket 3.6 19:29:32 10° W 19:32:17 35° NNW 19:35:03 10° NE
STARLINK-1157 3.1 19:30:12 10° NW 19:33:32 68° SW 19:35:36 21° SE
STARLINK-1210 3.5 19:30:21 10° SW 19:34:26 65° SE 19:38:32 10° ENE
Meteor 1-4 Rocket 3.2 19:32:55 18° SE 19:34:49 32° E 19:37:56 10° NNE
CREW DRAGON DEMO-1 DEB 4.1 19:31:58 10° NW 19:34:50 34° NNE 19:36:59 15° E
Cosmos 1624 Rocket 4.2 19:29:45 10° S 19:34:52 52° ESE 19:40:02 10° NNE
STARLINK-1135 3.7 19:31:56 10° NW 19:36:05 74° NE 19:38:56 19° ESE
STARLINK-1219 3.5 19:35:18 10° SW 19:39:24 71° SE 19:43:32 10° NE
NOSS 2-3 (C) 3.5 19:35:40 10° SSW 19:39:48 69° ESE 19:44:34 10° NE
MetOp-B 4.3 19:36:27 16° SSE 19:40:44 60° ENE 19:46:00 10° N
STARLINK-1141 3.6 19:36:56 10° NW 19:41:06 81° NE 19:43:45 21° SE
Aureole 1 Rocket 3.7 19:38:46 10° N 19:42:46 45° ENE 19:46:04 20° SE
Cosmos 1782 Rocket 3.7 19:38:22 10° N 19:42:49 60° E 19:45:53 19° SSE
STARLINK-1211 3.5 19:40:14 10° SW 19:44:22 78° SE 19:48:30 10° NE
STARLINK-1140 3.6 19:41:53 10° NW 19:46:02 88° NNE 19:48:30 24° SE
Cosmos 1703 Rocket 3.7 19:42:28 10° SSW 19:46:47 75° W 19:51:07 10° N
Cosmos 1140 Rocket 3.9 19:42:25 10° N 19:47:28 49° ENE 19:50:40 21° SE
BREEZE M DEB (TANK) 3.5 19:38:32 10° SW 19:47:48 57° SSE 19:50:52 10° ENE
Cosmos 1371 Rocket 3.9 19:43:27 10° SSW 19:48:43 80° ESE 19:53:57 10° NNE
STARLINK-1245 3.5 19:45:13 10° SW 19:49:21 86° SE 19:53:30 10° NE
Cosmos 614 Rocket 3.9 19:45:29 10° NNW 19:50:35 90° S 19:54:13 19° SSE
STARLINK-1156 3.6 19:46:53 10° NW 19:51:01 85° SW 19:53:18 26° SE
Okean 2 Rocket 4.2 19:47:13 10° NNE 19:51:05 29° ENE 19:52:50 22° ESE
TELKOM 3 2.7 19:49:11 10° NW 19:51:18 75° NNE 19:51:39 55° E
STARLINK-1233 3.6 19:50:11 10° SW 19:54:19 87° NW 19:58:28 10° NE
Landsat 7 4.1 19:52:21 23° SE 19:55:09 53° ENE 19:59:48 10° N
Cosmos 1634 Rocket 4.1 19:48:58 10° N 19:55:14 62° E 19:59:38 20° SSE
Cosmos 1743 3.3 19:51:51 10° NNW 19:55:34 53° W 19:58:40 14° SSW
STARLINK-1148 3.6 19:51:51 10° NW 19:56:00 78° SW 19:58:04 28° SE
STARLINK-1087 2.0 19:55:01 10° NW 19:56:54 63° N 19:56:54 63° N
Cosmos 1544 3.0 19:54:28 10° N 19:58:06 70° E 19:59:45 30° SSE
ERBS 3.8 20:00:02 20° E 20:00:02 20° E 20:01:29 10° ENE
Cosmos 2082 Rocket 3.8 19:54:37 10° N 19:59:08 23° NE 20:02:27 14° E
STARLINK-1204 3.7 19:55:10 10° SW 19:59:18 80° NW 20:03:28 10° NE
SAR-Lupe-2 3.5 19:56:29 10° NNE 20:00:06 71° ESE 20:02:13 23° S
STARLINK-1158 3.6 19:56:51 10° NW 20:00:58 71° SW 20:02:52 31° SE
ERS-1 Rocket 3.7 20:00:29 24° ESE 20:02:57 39° ENE 20:07:36 10° N
STARLINK-1238 3.8 20:00:08 10° WSW 20:04:15 74° NW 20:08:24 10° NE
STARLINK-1162 3.7 20:01:48 10° WNW 20:05:55 64° SW 20:07:37 33° SSE
Tsikada Rocket 4.4 20:02:09 10° SSW 20:08:17 62° W 20:14:25 10° N
Spot 2 Rocket 3.4 20:05:07 23° SSE 20:08:17 86° ENE 20:13:21 10° NNW
Cosmos 1833 Rocket 3.4 20:03:02 10° N 20:08:19 41° ENE 20:11:09 24° ESE
SeaSat 1 4.0 20:05:50 10° ENE 20:08:33 18° E 20:08:33 18° E
STARLINK-1201 4.0 20:05:09 10° WSW 20:09:16 67° NW 20:13:24 10° NE
Cosmos 1975 2.9 20:06:08 10° N 20:10:12 75° W 20:12:22 26° S
STARLINK-1206 4.1 20:10:09 10° WSW 20:14:15 62° NW 20:18:22 10° NE
Meteor 2-9 Rocket 4.1 20:09:15 10° NNW 20:14:40 81° W 20:18:02 23° S
Cosmos 676 Rocket 4.2 20:10:00 10° NNW 20:15:10 58° ENE 20:17:33 31° SE
STARLINK-1159 4.0 20:11:50 10° WNW 20:15:52 52° SW 20:17:12 36° S
Cosmos 2056 Rocket 3.8 20:12:20 10° SSW 20:17:24 66° WNW 20:22:31 10° NNE
EXPRESS MD2 4.4 20:19:41 29° E 20:19:41 29° E 20:23:34 10° ENE
STARLINK-1205 4.3 20:15:10 10° WSW 20:19:14 57° NW 20:23:19 10° NE
STARLINK-1171 4.1 20:16:51 10° WNW 20:20:50 47° SW 20:22:00 36° S
SL-4 R/B 3.7 20:19:29 10° NNE 20:21:14 14° NE 20:21:42 13° ENE
STARLINK-1080 4.4 20:19:08 10° NW 20:23:07 44° NNE 20:24:55 27° E
STARLINK-1218 4.4 20:20:11 10° WSW 20:24:13 52° NNW 20:28:17 10° NE
ISS -1.0 20:23:31 10° NNW 20:25:46 17° NNE 20:28:02 10° NE
STARLINK-1155 4.3 20:21:52 10° WNW 20:25:48 43° SW 20:26:47 36° S
Cosmos 909 Rocket 4.4 20:19:47 10° NW 20:27:28 71° WSW 20:31:07 28° SSE
STARLINK-1090 4.3 20:24:05 10° NW 20:28:07 47° NNE 20:29:42 31° E
CARTOSAT-1 3.6 20:28:14 43° SE 20:29:29 63° ENE 20:33:46 10° N
Cosmos 2278 Rocket 2.2 20:24:44 10° SSW 20:30:24 88° WNW 20:36:08 10° NNE
STARLINK-1166 4.4 20:26:52 10° WNW 20:30:45 39° SW 20:31:33 35° SSW
STARLINK-1089 4.2 20:29:03 10° NW 20:33:06 51° NNE 20:34:28 35° E
Cosmos 1437 Rocket 3.0 20:37:00 46° E 20:37:00 46° E 20:40:31 10° NNE
STARLINK-1107 4.0 20:34:00 10° NW 20:38:05 55° NNE 20:39:15 40° E
Terra 2.1 20:38:31 41° ESE 20:39:45 53° ENE 20:44:24 10° N
Meteor 1-12 Rocket 4.2 20:35:09 10° N 20:40:50 89° E 20:43:14 37° S
Lacrosse 5 3.1 20:37:35 10° NNW 20:42:11 34° NE 20:44:50 21° E
STARLINK-1066 3.9 20:38:59 10° NW 20:43:06 60° NE 20:44:02 46° E
IGS 5A 4.4 20:44:11 28° SSW 20:45:46 41° W 20:49:43 10° NNW
STARLINK-1081 3.8 20:43:57 10° NW 20:48:05 66° NE 20:48:49 53° E
Cosmos 1452 Rocket 3.4 20:45:55 33° S 20:48:19 82° ESE 20:53:38 10° NNE
Okean 3 4.4 20:47:56 22° SW 20:50:21 44° WNW 20:54:30 10° N
STARLINK-1230 4.4 20:52:48 38° ENE 20:52:48 38° ENE 20:55:30 10° ENE
STARLINK-1070 3.6 20:48:54 10° NW 20:53:03 72° NE 20:53:35 61° E
Cosmos 1300 Rocket 3.7 20:48:55 10° NNW 20:53:20 68° W 20:54:26 48° SSW
Crew Dragon 3.5 20:53:52 10° N 20:54:13 11° NNE 20:54:13 11° NNE
Cosmos 1420 Rocket 4.4 20:51:00 16° SW 20:55:08 60° WNW 21:00:18 10° NNE
STARLINK-1243 4.2 20:57:34 43° ENE 20:57:34 43° ENE 21:00:30 10° NE
STARLINK-1069 3.5 20:53:52 10° NW 20:58:01 78° NE 20:58:21 71° E
Meteor 1-13 Rocket 4.5 20:56:55 27° SSW 21:00:01 66° WNW 21:05:40 10° N
STARLINK-1236 4.0 21:02:20 50° ENE 21:02:20 50° ENE 21:05:30 10° NE
Cosmos 371 Rocket 3.4 21:00:02 35° SSW 21:02:02 74° WNW 21:06:56 10° NNE
Meteor 1-23 Rocket 4.2 21:01:01 47° SSE 21:02:39 71° E 21:08:19 10° NNE
Resurs 01 Rocket 4.4 21:01:45 10° WSW 21:02:57 11° W 21:04:10 10° WNW
STARLINK-1085 3.5 20:58:52 10° NW 21:03:01 85° NE 21:03:10 82° E
USA 215 4.2 20:58:28 15° E 21:03:27 42° NNE 21:09:31 10° NW
COSMOS 2406 3.9 20:58:28 10° NW 21:03:56 45° WSW 21:05:59 32° SSW
Cosmos 1461 4.3 21:06:45 26° ENE 21:06:45 26° ENE 21:08:58 10° NE
Cosmos 1674 Rocket 3.5 21:04:49 64° SSW 21:05:27 81° W 21:09:51 10° N
STARLINK-1086 3.5 21:03:51 10° NW 21:07:56 86° W 21:07:56 86° W
STARLINK-1269 3.7 21:11:52 65° NE 21:11:52 65° NE 21:15:27 10° NE
Cosmos 1378 Rocket 3.4 21:12:35 77° SSW 21:12:54 89° W 21:17:20 10° N
STARLINK-1095 3.6 21:08:49 10° NW 21:12:43 75° W 21:12:43 75° W
SPOT 5 3.5 21:12:28 40° SSW 21:13:54 52° W 21:19:01 10° NNW
Nadezhda 4 Rocket 3.9 21:13:38 45° S 21:15:40 87° E 21:21:50 10° N
STARLINK-1200 3.7 21:16:39 72° NNE 21:16:39 72° NNE 21:20:26 10° NE
STARLINK-1077 3.8 21:13:48 10° NW 21:17:29 65° W 21:17:29 65° W
Cosmos 972 Rocket 4.3 21:17:04 50° S 21:18:41 77° ESE 21:25:14 10° NNE
STARLINK-1192 3.7 21:21:26 74° N 21:21:26 74° N 21:25:25 10° NE
STARLINK-1075 4.0 21:18:47 10° NW 21:22:16 56° W 21:22:16 56° W
Cosmos 1975 Rocket 4.0 21:23:46 36° ENE 21:23:46 36° ENE 21:27:11 10° NNE
Cosmos 1741 Rocket 3.8 21:18:38 10° NNW 21:23:53 87° ENE 21:24:31 69° SSE
STARLINK-1244 3.8 21:26:11 69° NW 21:26:14 69° NW 21:30:22 10° NE
Cosmos 2297 3.6 21:25:27 60° S 21:26:26 77° ESE 21:32:09 10° NNE
STARLINK-1093 4.2 21:23:47 10° WNW 21:27:04 49° W 21:27:04 49° W
JB-3 4.5 21:25:10 10° N 21:29:08 77° NNW 21:29:08 77° NNW
STARLINK-1138 3.9 21:30:59 62° WNW 21:31:13 64° NW 21:35:21 10° NE
STARLINK-1074 4.5 21:28:47 10° WNW 21:31:51 42° W 21:31:51 42° W
STARLINK-1203 4.1 21:32:36 49° W 21:33:25 61° NW 21:37:35 10° NE
BREEZE-M DEB (TANK) 3.5 21:23:26 10° WNW 21:34:20 80° NNE 21:35:39 51° ESE
STARLINK-1143 4.1 21:35:46 55° WNW 21:36:12 59° NW 21:40:18 10° NE
Cosmos 1850 Rocket 4.0 21:32:39 10° NNW 21:37:58 67° WSW 21:38:31 63° SW
STARLINK-1241 4.3 21:40:29 47° WNW 21:41:11 54° NNW 21:45:16 10° NE
Cosmos 2082 Rocket 2.4 21:37:59 10° NNW 21:43:35 56° WSW 21:44:18 52° SW
Cosmos 1110 Rocket 3.9 21:43:29 72° SW 21:43:59 83° WNW 21:49:12 10° NNE
STARLINK-1122 4.4 21:41:03 10° NW 21:45:00 46° NNE 21:45:00 46° NNE
STARLINK-1239 4.4 21:45:15 41° WNW 21:46:11 50° NNW 21:50:13 10° NE
Okean 1 Rocket 3.7 21:42:35 10° NNW 21:46:51 49° W 21:46:51 49° W
SeaSat 1 2.9 21:42:07 10° NNE 21:46:58 59° WNW 21:48:18 43° WSW
ATLAS 2AS CENTAUR R/B 4.1 21:48:30 26° ESE 21:48:30 26° ESE 21:54:27 10° ENE
Aureole 2 Rocket 4.5 21:51:13 25° N 21:51:13 25° N 21:52:46 10° N
STARLINK-1126 4.4 21:45:58 10° NW 21:49:44 48° NNE 21:49:44 48° NNE
Cosmos 304 Rocket 4.3 21:50:10 47° W 21:50:56 52° WNW 21:55:38 10° N
Cosmos 1833 Rocket 3.9 21:47:19 10° NW 21:52:02 28° WSW 21:52:51 27° WSW
Okean 2 4.0 21:53:51 56° N 21:53:51 56° N 21:57:10 10° N
Cosmos 1092 Rocket 3.9 21:52:19 56° SSW 21:53:39 77° W 21:59:48 10° N
Cosmos 1805 4.1 21:50:27 10° NNW 21:53:26 48° NW 21:53:26 48° NW
SL-4 R/B 4.1 21:51:44 10° NW 21:52:33 16° WNW 21:52:33 16° WNW
EO 1 Del DPAF 4.2 21:50:50 10° N 21:53:37 46° N 21:53:37 46° N
STARLINK-1082 4.4 21:50:59 10° NW 21:54:34 50° N 21:54:34 50° N
Cosmos 2369 Rocket 2.9 21:57:13 40° E 21:57:13 40° E 22:01:51 10° NE
Cosmos 1455 Rocket 3.6 21:55:34 10° N 21:59:07 51° NE 21:59:07 51° NE
STARLINK-1100 4.4 21:55:57 10° NW 21:59:21 50° N 21:59:21 50° N
Meteor 1-21 4.3 22:01:13 62° E 22:01:19 62° E 22:06:52 10° NNE
Cosmos 1627 Rocket 4.4 22:01:10 62° SSW 22:02:19 84° W 22:08:43 10° N
ISS -1.5 21:59:48 10° NW 22:01:21 24° NW 22:01:21 24° NW
Nimbus 7 Rocket 4.4 21:57:42 10° NNE 22:03:45 64° ESE 22:04:10 62° SE
Cosmos 1842 4.3 22:05:25 43° N 22:05:25 43° N 22:08:09 10° N
STARLINK-1083 4.5 22:00:54 10° NW 22:04:08 48° NNW 22:04:08 48° NNW
USA 238 DEB 4.5 21:58:33 10° NNW 22:05:32 49° NE 22:08:58 30° ESE
Cosmos 1025 Rocket 4.4 22:08:42 30° NE 22:08:42 30° NE 22:11:23 10° NNE
Cosmos 1943 Rocket 2.1 22:07:36 73° E 22:07:36 73° E 22:13:01 10° NNE
Cosmos 1331 Rocket 4.4 22:07:06 51° W 22:07:48 56° WNW 22:12:54 10° N
Cosmos 1302 Rocket 3.9 22:12:14 80° ENE 22:12:14 80° ENE 22:17:20 10° NNE
Meteor 2-13 Rocket 4.3 22:12:50 69° SSW 22:13:39 85° W 22:19:50 10° N
Terra 3.9 22:17:24 16° W 22:17:48 16° W 22:20:41 10° NW
ALOS 2 3.2 22:19:22 53° NNE 22:19:22 53° NNE 22:23:00 10° N
Spot 4 4.3 22:23:24 55° WNW 22:23:24 55° WNW 22:27:47 10° NNW
Cosmos 1655 Rocket 4.1 22:22:34 57° ESE 22:23:00 58° E 22:29:06 10° NNE
Cosmos 292 Rocket 4.4 22:25:11 49° NE 22:25:11 49° NE 22:28:57 10° NNE
Lacrosse 5 2.8 22:20:27 10° NW 22:24:01 39° W 22:24:01 39° W
S3M 4.1 22:21:11 10° N 22:27:16 58° E 22:27:54 55° ESE
COSMOS 2455 4.4 22:28:32 22° E 22:28:32 22° E 22:32:04 10° NE
Cosmos 2263 4.5 22:30:29 54° E 22:30:29 54° E 22:35:26 10° NNE
BREEZE-M DEB (TANK) 4.4 22:21:10 10° W 22:31:50 42° NNW 22:35:13 10° NE
Cosmos 1544 Rocket 4.3 22:31:19 10° NNW 22:34:36 50° NNW 22:34:36 50° NNW
Cosmos 1726 4.2 22:34:27 10° NNE 22:36:25 24° NE 22:36:25 24° NE
Cosmos 1992 Rocket 4.3 22:45:08 56° ENE 22:45:08 56° ENE 22:49:34 10° NNE
Cosmos 1553 Rocket 3.9 22:38:40 10° N 22:44:59 75° W 22:45:31 70° SW
Cosmos 1953 3.7 22:41:07 10° N 22:43:45 35° NNE 22:43:45 35° NNE
Cosmos 1271 Rocket 4.2 22:46:32 35° N 22:46:32 35° N 22:48:56 10° N
USA 215 3.1 22:45:48 65° SSW 22:46:13 66° SW 22:52:44 10° NW
Cosmos 1340 Rocket 4.4 22:42:50 10° N 22:45:32 31° NE 22:45:32 31° NE
Cosmos 1656 Rocket 3.9 22:52:30 58° E 22:52:30 58° E 22:57:36 10° NNE
Cosmos 1707 4.2 22:53:56 36° NNW 22:53:56 36° NNW 22:56:25 10° N
Aureole 3 Rocket 4.3 22:47:45 10° NNW 22:53:14 60° W 22:54:05 55° SW
In-Cosmos 22 4.3 22:54:02 62° ENE 22:54:02 62° ENE 22:58:56 10° NNE
Cosmos 2292 Rocket 4.3 23:02:09 51° NNE 23:02:09 51° NNE 23:05:03 10° N
Meteor 1-16 Rocket 4.2 22:57:43 10° N 23:03:17 66° ENE 23:03:22 66° E
NOSS 3-2 (C) 4.2 22:55:43 10° NNW 23:03:22 71° NE 23:07:07 37° SE
APEX 4.4 23:02:48 71° SW 23:03:34 84° WNW 23:09:31 10° NNE
CZ-4 R/B 4.4 23:02:13 10° NNE 23:06:12 49° ENE 23:06:12 49° ENE
NOSS 3-4 (A) 3.3 23:10:07 72° ESE 23:10:07 72° ESE 23:16:17 10° NE
NOSS 3-4 (C) 3.3 23:10:13 71° ESE 23:10:13 71° ESE 23:16:23 10° NE
SL-4 R/B 3.8 23:13:39 30° ENE 23:13:39 30° ENE 23:16:14 10° ENE
Meteor 2-10 4.1 23:09:25 10° NNW 23:13:53 64° NW 23:13:53 64° NW
Cosmos 2266 Rocket 3.8 23:16:09 69° WSW 23:16:40 74° W 23:22:46 10° N
Cosmos 1674 4.4 23:18:32 31° NNE 23:18:32 31° NNE 23:20:41 10° NNE
PSLV R/B 4.3 23:12:26 10° NNE 23:16:05 50° NE 23:16:05 50° NE
ATLAS CENTAUR R/B 3.0 23:20:47 29° ENE 23:20:47 29° ENE 23:23:08 10° NE
ATLAS 3B R/B 3.8 23:12:51 10° NNW 23:19:11 39° NE 23:25:34 10° ESE
CENTAUR R/B 3.2 23:15:18 10° NNW 23:23:32 80° NE 23:27:41 36° SE
Cosmos 1503 Rocket 4.0 23:19:51 10° NNW 23:24:51 79° NW 23:24:51 79° NW
BREEZE-M DEB (TANK) 4.1 23:29:42 10° NW 23:33:08 51° NNE 23:39:34 10° ESE
Cosmos 1867 4.1 23:29:25 10° NNW 23:34:47 54° NE 23:36:08 43° E
Cosmos 883 Rocket 4.4 23:30:38 10° NNW 23:36:43 66° W 23:37:08 64° WSW
Cosmos 1892 Rocket 4.2 23:37:41 50° NE 23:37:41 50° NE 23:41:17 10° NNE
ATLAS 2AS CENTAUR R/B 3.1 23:35:53 46° SW 23:38:33 75° NW 23:46:34 10° NNE
Cosmos 968 Rocket 4.3 23:34:05 10° NNW 23:38:01 40° WNW 23:38:01 40° WNW
Meteor 1-24 Rocket 3.9 23:39:53 52° E 23:40:03 52° E 23:45:13 10° NNE
Cosmos 1354 Rocket 4.1 23:34:46 10° NNW 23:39:37 67° WNW 23:39:37 67° WNW
Cosmos 2369 Rocket 3.6 23:38:58 25° W 23:40:40 29° NW 23:45:36 10° N
RESURS DK-1 4.0 23:43:24 28° ENE 23:43:24 28° ENE 23:45:55 10° NE
Cosmos 1809 Rocket 4.3 23:42:06 70° SSE 23:42:50 81° E 23:49:02 10° N
CZ-2D R/B 3.6 23:43:55 10° NE 23:48:10 25° E 23:48:55 24° ESE
NOSS 3-2 (A) 4.4 23:41:57 10° NW 23:49:21 47° WSW 23:50:12 46° SW
Cosmos 1726 Rocket 4.0 23:46:10 10° N 23:49:40 58° N 23:49:40 58° N
Cosmos 2315 Rocket 4.0 23:45:32 10° NNW 23:51:38 63° W 23:52:12 60° WSW
Cosmos 1943 Rocket 4.3 23:49:05 13° W 23:51:48 18° NW 23:55:33 10° N
Meteor 2-5 Rocket 3.5 23:52:49 81° SSW 23:53:06 87° WNW 23:58:41 10° N
Helios 1B rocket 3.4 23:49:39 10° N 23:52:51 41° NW 23:52:51 41° NW
